Home   Weather   Santa Clarita   Past weeks
Flag for USA

Past Weather in Santa Clarita, California, USA — Yesterday and Last 2 Weeks

Now
47 °F

Clear.


Feels Like: 46 °F
Forecast: 69 / 44 °F
Wind: 3 mph from Northwest

Location: Van Nuys Airport

Current Time: Dec 11, 2019 at 3:22:40 am

Latest Report: Dec 11, 2019 at 1:51 am


Visibility: 10 mi

Pressure: 30.18 "Hg

Humidity: 83%

Dew Point: 42 °F

Location of Santa ClaritaLocation

Past Weather in Santa Clarita — Graph

°F

Santa Clarita Temperature Yesterday

Maximum temperature yesterday: 68 °F (at 2:51 pm)
Minimum temperature yesterday: 43 °F (at 5:51 am)
Average temperature yesterday: 54 °F

High & Low Weather Summary for the Past Weeks

 TemperatureHumidityPressure
High71 °F (Dec 2, 1:51 pm)93% (Nov 27, 8:25 am)30.24 "Hg (Nov 27, 8:25 am)
Low37 °F (Nov 29, 5:08 am)15% (Nov 26, 11:51 am)29.54 "Hg (Nov 28, 12:51 pm)
Average54 °F71%29.98 "Hg
* Reported Nov 26 1:03 am — Dec 11 1:51 am, Santa Clarita. Weather by CustomWeather, © 2019

Note: Actual official high and low records may vary slightly from our data, if they occured in-between our weather recording intervals... More about our weather records

Santa Clarita Weather History for the Previous 24 Hours

Scroll right to see more
 ConditionsComfort  
Time TempWeatherWind HumidityBarometerVisibility
1:51 am
Wed, Dec 11
47 °FClear.3 mph83%30.18 "Hg10 mi
12:51 am48 °FClear.No wind80%30.17 "Hg10 mi
11:51 pm
Tue, Dec 10
48 °FClear.No wind80%30.18 "Hg10 mi
10:51 pm49 °FClear.No wind80%30.20 "Hg10 mi
9:51 pm49 °FClear.No wind84%30.20 "Hg10 mi
8:51 pm50 °FClear.3 mph80%30.19 "Hg10 mi
7:51 pm54 °FClear.No wind72%30.18 "Hg10 mi
6:51 pm56 °FClear.No wind67%30.18 "Hg10 mi
5:51 pm59 °FClear.No wind58%30.18 "Hg10 mi
4:51 pm62 °FPassing clouds.3 mph52%30.17 "Hg10 mi
3:51 pm64 °FSunny.5 mph45%30.16 "Hg10 mi
2:51 pm68 °FSunny.5 mph35%30.16 "Hg10 mi
1:51 pm66 °FSunny.No wind39%30.16 "Hg10 mi
12:51 pm64 °FSunny.3 mph43%30.18 "Hg10 mi
11:51 am63 °FSunny.No wind47%30.20 "Hg10 mi
10:51 am59 °FPartly sunny.No wind51%30.24 "Hg10 mi
9:51 am55 °FPartly sunny.No wind64%30.24 "Hg10 mi
8:51 am49 °FSunny.No wind77%30.22 "Hg10 mi
7:51 am48 °FPartly sunny.No wind77%30.19 "Hg10 mi
6:51 am43 °FSunny.3 mph86%30.19 "Hg10 mi
5:51 am43 °FClear.No wind86%30.17 "Hg10 mi
4:51 am45 °FClear.No wind82%30.16 "Hg10 mi
3:51 am46 °FClear.No wind79%30.16 "Hg10 mi
Weather by CustomWeather, © 2019

See weather overview

Advertising